Regional Weather Roundup
Issued by NWS Upton, NY

Current Version | Previous Version | Graphics & Text | Print | Product List | Glossary Off
Versions: 1 2 3 4 5 6 7 8 9 10 11 12 13 14 15 16 17 18 19 20 21 22 23 24 25 26 27 28 29 30 31 32 33 34 35 36 37 38 39 40 41 42 43 44 45 46 47 48 49 50

000
ASUS41 KOKX 272108
RWROKX

REGIONAL WEATHER ROUNDUP
NATIONAL WEATHER SERVICE NEW YORK NY
500 PM EDT MON JUL 27 2015

NOTE: "FAIR" INDICATES FEW OR NO CLOUDS BELOW 12,000 FEET WITH NO
SIGNIFICANT WEATHER AND/OR OBSTRUCTIONS TO VISIBILITY.

NYZ071-072-176-178-NJZ106-104-272200-
NEW YORK CITY METRO AREA


CITY           SKY/WX    TMP DP  RH WIND       PRES   REMARKS
CENTRAL PARK   SUNNY     82  66  58 MISG      30.01F
LAGUARDIA APRT MOSUNNY   81  66  60 S15       29.98S
KENNEDY INTL   MOSUNNY   82  67  60 S14       30.01S
NEWARK/LIBERTY PTSUNNY   84  69  60 S12G18    29.98S
BRNX BOT. GARD   N/A     77  66  69 S8        30.00S
TETERBORO      SUNNY     85  66  53 S14       29.96F
$$

NYZ177-179-078>081-272200-
LONG ISLAND NEW YORK

CITY           SKY/WX    TMP DP  RH WIND       PRES   REMARKS
FARMINGDALE    MOSUNNY   82  69  64 S13       30.00F
ISLIP          MOSUNNY   81  69  67 S14       29.99S
SHIRLEY        MOSUNNY   82  69  64 S14       30.02S
WESTHAMPTON    SUNNY     82  69  64 S9        30.03S
MONTAUK POINT    N/A     82  70  66 VRB6      30.03F
$$

NYZ052-065-067-272200-
HUDSON VALLEY

CITY           SKY/WX    TMP DP  RH WIND       PRES   REMARKS
WHITE PLAINS   MOSUNNY   80  66  62 S8        30.00S
NEWBURGH       PTSUNNY   77  70  78 S8        30.00S
MONTGOMERY     MOSUNNY   82  70  66 E7        29.97F
POUGHKEEPSIE   MOSUNNY   86  67  52 VRB6      29.96F
ALBANY         MOSUNNY   88  66  48 SW8       29.94F HX  90
$$

NJZ001-105-106-008-010-013-015-019>022-104-272200-
NEW JERSEY

CITY           SKY/WX    TMP DP  RH WIND       PRES   REMARKS
NEWARK/LIBERTY PTSUNNY   84  69  60 S12G18    29.98S
TETERBORO      SUNNY     85  66  53 S14       29.96F
CALDWELL       LGT RAIN  82  69  64 S8        29.97F
MORRISTOWN     PTSUNNY   84  70  61 S9G17     29.97F
SOMERVILLE     MOSUNNY   86  67  52 S5        29.95F
SUSSEX         SUNNY     84  66  54 SW8       29.98F
ANDOVER          N/A     83  69  62 VRB3      29.99F
TRENTON        MOSUNNY   85  67  54 S9        29.96F
MILLVILLE      CLOUDY    83  69  62 VRB5      29.99F
ATLANTIC CITY  PTSUNNY   79  69  71 S10       30.01S
WRIGHTSTOWN    LGT RAIN  82  71  69 S6        29.95F
TOMS RIVER     SUNNY     82  68  61 S13       30.00S
BELMAR         MOSUNNY   79  68  69 S9G17     30.00F
$$

PAZ047>061-062-071-272200-
EASTERN PENNSYLVANIA

CITY           SKY/WX    TMP DP  RH WIND       PRES   REMARKS
PHILADELPHIA   MOSUNNY   85  67  54 S9        29.98F
ALLENTOWN      SUNNY     86  69  56 CALM      29.98F HX  90
SCRANTON       SUNNY     86  66  51 N3        29.99F
$$

CTZ002-004>006-009-010-012-RIZ004-006-007-MAZ004-011-015-272200-
SOUTHERN NEW ENGLAND
 IN CT

CITY           SKY/WX    TMP DP  RH WIND       PRES   REMARKS
BRADLEY INTL   PTSUNNY   84  67  56 S15       29.96F
HARTFORD       MOSUNNY   84  67  56 S13G18    29.98F
DANBURY        MOSUNNY   82  67  60 SE10      30.00F
WTRBRY/OXFORD  PTSUNNY   79  64  61 S8        30.03F
BRIDGEPORT     SUNNY     79  69  71 E6        29.99F
MERIDEN        SUNNY     84  64  50 S13       29.99F
NEW HAVEN      MOSUNNY   81  68  64 S5        30.00F
CHESTER        FAIR      81  70  69 S8        30.03S
GROTON         MOSUNNY   77  67  71 S8        30.01S
WILLIMANTIC    PTSUNNY   82  65  56 S10G16    30.00F

 IN RI

CITY           SKY/WX    TMP DP  RH WIND       PRES   REMARKS
PROVIDENCE     PTSUNNY   79  67  66 S13       30.02S
BLOCK ISLAND   PTSUNNY   77  72  83 S10       30.03F
WESTERLY       MOSUNNY   77  67  71 S7        30.03S

 IN MA

CITY           SKY/WX    TMP DP  RH WIND       PRES   REMARKS
BOSTON         PTSUNNY   80  67  64 S10       29.97S
WORCESTER      CLOUDY    77  65  66 S8        30.03S
WESTFIELD      MOSUNNY   83  67  58 S13       29.97S
PROVINCETOWN   PTSUNNY   75  61  60 S10       30.01S
NANTUCKET      PTSUNNY   73  67  81 S12       30.03F
$$

ANZ330-335-338-340-345-350-353-355-272200-
COASTAL MARINE OBSERVATIONS


STATION/POSITION TIME  SKY/WX   TEMP    WIND        PRES    VSBY  WAVE
                                AIR SEA DIR/SP/G                  HT/PER
                 (UTC)          (F)     (DEG/KT/KT) (MB)    (MI)  (FT/S)
NY HARB ENTRANCE 2050            76 76  160/ 10/ 12 1015.4          2/11
4S FIRE IS       NOT AVBL
20S FIRE ISLAND  2050            76 74  170/  8/ 10 1016.0          2/11
GREAT SOUTH BAY  2030            76 80  180/ 12/ 14   N/A
23SW MTP         2050            75 74  180/  8/ 10 1016.1          2/10
HUDSON CANYON    NOT AVBL
KINGS POINT      2000            80 75  190/ 11/ 14 1015.0
CENTRAL LI SOUND NOT AVBL
EASTERN LI SOUND 2000            76 70  110/  6/  8   N/A
ROBBINS REEF     2000            75     160/ 21/ 23 1014.4
$$


>>>>>>>>>>>>>>>>>>>>>>>>>>>> KEY <<<<<<<<<<<<<<<<<<<<<<<<<<<
>                                                          <
>     SKY/WX - SKY CONDITION/PRESENT WEATHER               <
>     TMP    - TEMPERATURE IN FAHRENHEIT                   <
>     DP     - DEWPOINT IN FAHRENHEIT                      <
>     RH     - RELATIVE HUMIDITY IN PERCENT                <
>     WIND   - DIRECTION AND SPEED IN MPH                  <
>     PRES   - MEAN SEA LEVEL PRESSURE IN INCHES OF HG     <
>     WCI    - WIND CHILL INDEX                            <
>     VSB    - VISIBILITY IN MILES                         <
>     HX     - HEAT INDEX                                  <
>     TC     - TEMPERATURE IN CELSIUS                      <
>     VRB    - VARIABLE WIND DIRECTION                     <
>                                                          <
>>>>>>>>>>>>>>>>>>>>>>>>>>>> KEY <<<<<<<<<<<<<<<<<<<<<<<<<<<




USA.gov is the U.S. government's official web portal to all federal, state and local government web resources and services.